Date String (YYYY-MM-DD hh:mm:ss) UTC,Instrument flags,Ambient pressure (hPa),Sample flow (lpm),Bypass flow (lpm),Sample temperature (°C),Ambient temperature (°C),ASC tube jacket temperature (°C),LED temperature (°C),Box temperature (°C),Sample RH (%),Mass concentration (μg/m³),Mass concentration (μg/m³)
DateTimeUTC,F1_M11,P_M11,Q1_M11,Q2_M11,T1_M11,T2_M11,T3_M11,T4_M11,T5_M11,U1_M11,X0_M11,X2_M11
2021-08-16 01:00:00,,0828.9,5.01,0.00,29.2,28.3,00.0,38.0,31.1,20.0,0015.52,0009.71
2021-08-16 01:01:00,,0828.8,5.00,0.00,29.1,27.2,00.0,38.0,30.8,19.4,0015.84,0009.79
2021-08-16 01:02:00,,0829.1,4.99,0.00,29.0,25.7,00.0,38.0,30.3,19.6,0015.16,0009.79
2021-08-16 01:03:00,,0829.4,5.00,0.00,28.9,25.7,00.0,38.0,30.3,19.9,0014.51,0009.81
2021-08-16 01:04:00,,0829.3,5.01,0.00,28.9,26.1,00.0,38.0,30.4,20.3,0014.38,0009.79
2021-08-16 01:05:00,,0829.3,4.98,0.00,28.8,26.5,00.0,37.9,30.5,20.0,0014.31,0009.78
2021-08-16 01:06:00,,0829.3,5.01,0.00,28.9,26.9,00.0,37.9,30.7,19.9,0015.01,0009.74
2021-08-16 01:07:00,,0829.4,5.00,0.00,28.9,27.3,00.0,37.9,30.8,19.9,0015.53,0009.75
2021-08-16 01:08:00,,0829.2,5.00,0.00,29.0,27.6,00.0,37.9,30.9,20.0,0015.55,0009.75
2021-08-16 01:09:00,,0829.3,5.01,0.00,29.0,27.9,00.0,38.0,31.0,19.6,0016.37,0009.72
2021-08-16 01:10:00,,0829.2,5.00,0.00,29.1,28.1,00.0,38.0,31.1,19.5,0017.23,0009.70
2021-08-16 01:11:00,,0829.0,4.99,0.00,29.2,28.3,00.0,38.0,31.1,19.6,0017.19,0009.65
2021-08-16 01:12:00,,0828.8,5.01,0.00,29.2,27.6,00.0,38.0,30.9,19.6,0017.01,0009.62
2021-08-16 01:13:00,,0828.7,5.01,0.00,29.0,25.8,00.0,38.0,30.4,20.0,0017.08,0009.65
2021-08-16 01:14:00,,0828.7,4.99,0.00,28.9,25.6,00.0,38.0,30.3,20.0,0017.01,0009.66
2021-08-16 01:15:00,,0828.7,5.00,0.00,28.9,26.0,00.0,38.0,30.4,19.8,0016.31,0009.65
2021-08-16 01:16:00,,0828.7,4.99,0.00,28.8,26.4,00.0,38.0,30.5,19.8,0016.60,0009.65
2021-08-16 01:17:00,,0828.9,5.00,0.00,28.9,26.8,00.0,37.9,30.6,19.9,0016.13,0009.65
2021-08-16 01:18:00,,0829.1,4.99,0.00,28.9,27.2,00.0,37.9,30.8,20.1,0016.01,0009.64
2021-08-16 01:19:00,,0829.1,5.00,0.00,29.0,27.5,00.0,37.9,30.9,20.4,0015.90,0009.58
2021-08-16 01:20:00,,0829.1,5.00,0.00,29.0,27.8,00.0,38.0,31.0,20.5,0014.87,0009.58
2021-08-16 01:21:00,,0829.2,5.00,0.00,29.1,28.1,00.0,38.0,31.1,20.6,0014.01,0009.57
2021-08-16 01:22:00,,0829.2,5.01,0.00,29.1,28.3,00.0,38.0,31.1,20.7,0014.17,0009.56
2021-08-16 01:23:00,,0829.2,5.00,0.00,29.2,28.5,00.0,38.1,31.2,20.6,0014.76,0009.53
2021-08-16 01:24:00,,0829.1,4.99,0.00,29.3,28.1,00.0,38.1,31.1,21.0,0015.12,0009.53
2021-08-16 01:25:00,,0828.9,5.00,0.00,29.1,26.2,00.0,38.1,30.5,21.6,0015.46,0009.61
2021-08-16 01:26:00,,0828.7,5.00,0.00,29.0,25.5,00.0,38.0,30.3,21.0,0015.74,0009.64
2021-08-16 01:27:00,,0828.6,5.01,0.00,28.9,25.8,00.0,38.0,30.4,21.1,0015.54,0009.64
2021-08-16 01:28:00,,0828.6,4.98,0.00,28.9,26.2,00.0,38.0,30.5,21.0,0015.99,0009.63
2021-08-16 01:29:00,,0828.7,5.00,0.00,28.9,26.7,00.0,38.0,30.6,21.0,0016.01,0009.63
2021-08-16 01:30:00,,0829.0,5.01,0.00,28.9,27.1,00.0,38.0,30.7,21.6,0016.23,0009.67
2021-08-16 01:31:00,,0829.0,4.98,0.00,29.0,27.4,00.0,38.0,30.8,21.4,0016.76,0009.70
2021-08-16 01:32:00,,0829.2,5.00,0.00,29.0,27.7,00.0,38.0,30.9,21.0,0016.86,0009.75
2021-08-16 01:33:00,,0829.2,5.01,0.00,29.1,28.0,00.0,38.0,31.0,21.1,0016.68,0009.80
2021-08-16 01:34:00,,0829.0,5.02,0.00,29.1,28.2,00.0,38.0,31.1,20.9,0015.91,0009.80
2021-08-16 01:35:00,,0828.7,5.00,0.00,29.2,28.4,00.0,38.1,31.2,20.7,0015.59,0009.83
2021-08-16 01:36:00,,0828.7,5.00,0.00,29.3,28.3,00.0,38.1,31.2,20.6,0015.27,0009.77
2021-08-16 01:37:00,,0828.7,5.00,0.00,29.2,26.7,00.0,38.1,30.7,20.7,0014.89,0009.75
2021-08-16 01:38:00,,0828.8,5.01,0.00,29.0,25.4,00.0,38.1,30.3,21.0,0014.77,0009.79
2021-08-16 01:39:00,,0828.7,5.01,0.00,28.9,25.6,00.0,38.1,30.3,21.1,0013.99,0009.80
2021-08-16 01:40:00,,0828.9,4.99,0.00,28.9,26.1,00.0,38.0,30.5,21.2,0013.59,0009.82
2021-08-16 01:41:00,,0829.2,5.01,0.00,28.9,26.5,00.0,38.0,30.6,21.3,0013.34,0009.81
2021-08-16 01:42:00,,0829.4,4.99,0.00,28.9,27.0,00.0,38.0,30.7,21.1,0012.83,0009.76
2021-08-16 01:43:00,,0829.2,5.00,0.00,28.9,27.3,00.0,38.0,30.8,20.8,0012.80,0009.74
2021-08-16 01:44:00,,0828.9,5.00,0.00,29.0,27.6,00.0,38.0,30.9,20.8,0012.74,0009.70
2021-08-16 01:45:00,,0828.8,5.00,0.00,29.1,27.9,00.0,38.0,31.0,20.8,0013.28,0009.76
2021-08-16 01:46:00,,0828.9,4.99,0.00,29.1,28.1,00.0,38.0,31.1,20.8,0013.35,0009.75
2021-08-16 01:47:00,,0828.9,5.00,0.00,29.2,28.3,00.0,38.1,31.1,20.8,0013.72,0009.78
2021-08-16 01:48:00,,0828.9,5.01,0.00,29.2,28.5,00.0,38.1,31.2,20.9,0013.93,0009.84
2021-08-16 01:49:00,,0828.9,5.00,0.00,29.3,28.6,00.0,38.1,31.3,20.9,0013.98,0009.88
2021-08-16 01:50:00,,0828.9,5.00,0.00,29.3,27.5,00.0,38.2,30.9,21.0,0014.00,0009.88
2021-08-16 01:51:00,,0828.9,5.01,0.00,29.1,25.7,00.0,38.1,30.4,21.1,0014.17,0009.88
2021-08-16 01:52:00,,0828.9,5.00,0.00,29.0,25.5,00.0,38.1,30.3,21.2,0014.24,0009.88
2021-08-16 01:53:00,,0829.0,4.99,0.00,28.9,25.9,00.0,38.1,30.4,21.4,0014.30,0009.90
2021-08-16 01:54:00,,0829.0,5.00,0.00,28.9,26.4,00.0,38.0,30.6,21.4,0014.37,0009.93
2021-08-16 01:55:00,,0829.0,5.01,0.00,28.9,26.8,00.0,38.0,30.7,21.6,0014.32,0009.95
2021-08-16 01:56:00,,0829.0,5.01,0.00,28.9,27.2,00.0,38.0,30.8,21.7,0013.84,0009.90
2021-08-16 01:57:00,,0829.1,4.98,0.00,29.0,27.5,00.0,38.0,30.9,21.7,0013.85,0009.91
2021-08-16 01:58:00,,0829.1,5.02,0.00,29.1,27.8,00.0,38.0,31.0,21.6,0013.56,0009.90
2021-08-16 01:59:00,,0829.1,4.99,0.00,29.1,28.0,00.0,38.1,31.0,21.7,0013.51,0009.88
